1998-067QB

Last updated on Wed Jun 19 2019 00:02:09 GMT+0000 (Coordinated Universal Time)

1 44304U 98067QB 19169.12796453 .00007629 00000-0 13220-3 0 9993 2 44304 51.6422 356.5533 0006796 40.1155 320.0336 15.51939416 3005

Satellite not in orbit

1998-067QB